User: anonymous   Login
Location: Lawrence
(38.9720°N, 95.2350°W)
Time: 06:57:34
(UTC-05:00)
Language:

ALOS - Orbit

View from above orbital plane
View from above orbital plane
View from above satellite
View from above satellite

Ground track
Ground track

The orbit data is extracted from the following two-line orbital elements,

1 28931U 06002A   17232.93492496 +.00000161 +00000-0 +40568-4 0  9997
2 28931 097.8408 257.0415 0002550 097.8737 262.2755 14.62379208616923
Epoch (UTC): 20 August 2017 22:26:17
Eccentricity: 0.0002550
inclination: 97.8408°
perigee height: 684 km
apogee height: 687 km
right ascension of ascending node: 257.0415°
argument of perigee: 97.8737°
revolutions per day: 14.62379208
mean anomaly at epoch: 262.2755°
orbit number at epoch: 61692

The dashed part of the orbit path shows where the satellite is in the earth's shadow,  

DLR